Regional Weather Roundup
Issued by NWS

Home | Current Version | Previous Version | Text Only | Print | Product List | Glossary Off
Versions: 1 2 3 4 5 6 7 8 9 10 11 12 13 14 15 16 17 18 19 20 21 22 23 24 25 26 27 28 29 30 31 32 33 34 35 36 37 38 39 40 41 42 43 44 45 46 47 48 49 50

000
ASUS45 KBOU 290007
RWRCO

WEATHER ROUNDUP FOR COLORADO
NATIONAL WEATHER SERVICE DENVER/BOULDER CO
600 PM MDT THU AUG 28 2014

NOTE: "FAIR" INDICATES FEW OR NO CLOUDS BELOW 12000 FEET WITH NO
SIGNIFICANT WEATHER AND/OR OBSTRUCTIONS TO VISIBILITY.

COZ001>005-013-030-031-290100-
...NORTHWEST COLORADO...

CITY           SKY/WX    TMP DP  RH WIND       PRES   REMARKS
CRAIG          MOSUNNY   72  48  42 SW6       30.21F
HAYDEN         MOSUNNY   66  46  48 W12       30.23S
MEEKER         MOSUNNY   69  48  47 SW5       30.24S
MOUNT WERNER   NOT AVBL
STEAMBOAT SPGS CLOUDY    62  49  63 E10       30.26S
WALDEN         PTSUNNY   59  43  55 S7        30.31S
$$

COZ006>008-011-290100-
...WEST CENTRAL VALLEYS...

CITY           SKY/WX    TMP DP  RH WIND       PRES   REMARKS
GRAND JUNCTION MOSUNNY   76  49  38 S5        30.14F
MONTROSE       MOSUNNY   71  46  40 CALM      30.23F
EAGLE          NOT AVBL
RIFLE          SUNNY     74  52  46 NW3       30.18F
DELTA          SUNNY     75  50  40 S5        30.19S
NUCLA          NOT AVBL
$$

COZ017>023-064>068-290100-
...SOUTHWEST COLORADO...

CITY           SKY/WX    TMP DP  RH WIND       PRES   REMARKS
DURANGO        SUNNY     75  38  26 N15G25    30.18S
CORTEZ         SUNNY     77  43  29 N13G18    30.19F
PAGOSA SPRINGS MOSUNNY   71  32  24 NE8       30.26R
TELLURIDE      MOSUNNY   59  39  47 CALM      30.40S
WOLF CREEK PAS MOSUNNY   43  32  65 N9G17     30.54R
$$

COZ009-010-012-014-032>034-037-058>063-290100-
...CENTRAL COLORADO...

CITY           SKY/WX    TMP DP  RH WIND       PRES   REMARKS
ASPEN          PTSUNNY   61  45  55 NE8       30.31S
BUENA VISTA    MOSUNNY   66  30  26 NW17      30.28F
COPPER MTN     RAIN      41  37  87 W18       30.54S
BERTHOUD PASS  FOG       32  32 100 NW22G30   30.55R VSB<1/4 WCI  19
COTTONWOOD PAS MOSUNNY   61  32  33 CALM      30.40S
GUNNISON       SUNNY     64  37  36 NW12      30.31S
KREMMLING      CLOUDY    61  43  51 SW5       30.32S
LEADVILLE      CLOUDY    51  36  56 N10       30.41F
MONARCH PASS   MOSUNNY   46  32  57 NW13G20   30.64R
SALIDA         CLOUDY    68  33  27 N15G23    30.33S
SUNLIGHT       MOSUNNY   52  45  76 NW3       30.52S
WILKERSON PASS NOT AVBL
$$

COZ069>075-290100-
...SAN LUIS VALLEY/SANGRE DE CRISTO MOUNTAINS...

CITY           SKY/WX    TMP DP  RH WIND       PRES   REMARKS
ALAMOSA        PTSUNNY   61  44  53 W7        30.26R
LA VETA PASS   NOT AVBL
SAGUACHE       NOT AVBL
$$

COZ035-036-038>040-290100-
...NORTHERN COLORADO FRONT RANGE...

CITY           SKY/WX    TMP DP  RH WIND       PRES   REMARKS
DENVER INTL AP PTSUNNY   63  48  58 W10       30.17S
DMNS CITY PARK   N/A     65  49  55 SW7       30.15F
AURORA         PTSUNNY   61  49  65 NW6       30.19F
FRONT RANGE AP NOT AVBL
ERIE MUNI ARPT PTSUNNY   64  52  65 SW6       30.15F
BOULDER MUN AP CLOUDY    64  46  52 SW7       30.16S
CENTENNIAL     PTSUNNY   60  50  69 NW7       30.20F
BROOMFIELD     PTSUNNY   63  48  59 CALM      30.19F
FORT COLLINS   CLOUDY    63  52  67 S6        30.14S
LONGMONT       CLOUDY    65  51  59 SW8       30.15S
$$

COZ041-046-047-076>085-087-088-290100-
...PIKES PEAK/PALMER DIVIDE AND SOUTHERN FOOTHILLS...

CITY           SKY/WX    TMP DP  RH WIND       PRES   REMARKS
COLO. SPRINGS  PTSUNNY   58  52  80 NW21      30.23R
A. F. ACADEMY  PTSUNNY   54  50  84 N9        30.24F
ELLICOTT       CLOUDY    60  46  59 N15G28    30.21F
FALCON         CLOUDY    56  45  66 NW13G22   30.25F
FORT CARSON    CLOUDY    58  50  75 N16G28    30.21R
LIMON          CLOUDY    64  47  53 NW22      30.14R
MONUMENT HILL  CLOUDY    52  46  82 NW9       30.25F
TRINIDAD       CLOUDY    65  47  52 W10       30.14S
$$

COZ042>045-048>051-090-091-290100-
...NORTHEAST COLORADO...

CITY           SKY/WX    TMP DP  RH WIND       PRES   REMARKS
GREELEY ARPT   CLOUDY    64  48  55 S3        30.12F
AKRON          PTSUNNY   66  54  65 NW14      30.08S
BURLINGTON     MOSUNNY   75  51  43 NW21G26   30.02R
WRAY             N/A     74  58  55 NW16G24   29.99S
STERLING       PTSUNNY   70  59  68 N9        30.04S
HOLYOKE        SUNNY     72  55  56 NW15G22   30.00S
FORT MORGAN    PTSUNNY   68  50  52 N8        30.10S
$$

COZ086-089-092>099-290100-
...SOUTHEAST COLORADO...

CITY           SKY/WX    TMP DP  RH WIND       PRES   REMARKS
PUEBLO         LGT RAIN  64  54  69 N21       30.14R
LA JUNTA       CLOUDY    74  56  53 CALM      30.05R
LAMAR          PTSUNNY   77  50  38 NW6       29.98S
SPRINGFIELD      N/A     75  48  38 N21       30.03R
$$



USA.gov is the U.S. government's official web portal to all federal, state and local government web resources and services.